Погода в Вертхайме

Германия     49°45′34″N   9°30′56″E
темп.,
°C
ветер,
м/с
пор.,
м/с
влажн.,
%
обл.,
%
осадки,
мм/ч
давл.,
гПа
погр.,
м
24 июля, сб
сб2423:00+17всв1176100 0.0 101311
02:00+15всв228314 0.0 101213
05:00+15всв2289100 0.0 101115
08:00+18в2381100 0.0 1011149
11:00+19всв1186100 0.6 1011137
14:00+24ююв3465100 0.6 10101085
17:00+24ю346352 0.3 10101037
20:00+22ю2282100 1.5 100931
25 июля, вс
вс2523:00+17ююз3895100 8.8 1011352
02:00+16зюз2494100 8.8 101193
05:00+16зюз119375 0.0 101011
08:00+17юв119042 0.0 1011121
11:00+22ююв116985 0.1 1011975
14:00+19юв3589100 2.3 1011314
17:00+22ююв347281 0.4 1011827
20:00+20ююв24855 0.4 1011268
26 июля, пн
пн2623:00+17ююв1195100 0.6 101212
02:00+16ююз1194100 0.6 101213
05:00+15з119350 0.0 101211
08:00+18ююв11877 0.0 1013125
11:00+22юз347025 0.3 10131082
14:00+24юз355961 1.3 10131612
17:00+24ююз466242 0.3 10121156
20:00+20ююз36824 1.1 1013122
27 июля, вт
вт2723:00+16з11910 0.0 101411
02:00+15зюз11920 0.0 101510
05:00+14юз11940 0.0 101510
08:00+17ююз128872 0.0 1015147
11:00+22ююз2365100 0.0 10151001
14:00+23ююз3459100 0.1 10141378
17:00+19ю4784100 1.1 1015192
20:00+18ююз359164 1.6 1014220
28 июля, ср
ср2823:00+15ююз22955 0.1 101531
02:00+14ююз229536 0.1 101429
05:00+14ю22958 0.0 101320
08:00+17ю229067 0.1 1013142
11:00+17ююз3789100 0.9 1013195
14:00+16зюз3795100 2.0 1015456
17:00+22зюз576255 0.1 10141534
20:00+19юз37791 0.3 1015334